GW4014 Weather Reports


Display with metric or nautical units.
time (UTC)temp
F
wind
direction
speed
MPH
gust
MPH
rain 1hr
in
rain 24hr
in
rain mn
in
humidity
%
barometer
mb
20260507104948 53 90 0.0 0.0 0.00 0.00 0.00 87 1013.0
20260507104235 53 302 0.0 1.0 0.00 0.00 0.00 88 1013.0
20260507103736 53 301 0.0 1.0 0.00 0.00 0.00 88 1013.0
20260507103235 53 186 1.0 3.0 0.00 0.00 0.00 86 1013.0
20260507102735 53 179 0.0 3.0 0.00 0.00 0.00 86 1013.0
20260507102235 53 132 0.0 1.0 0.00 0.00 0.00 85 1013.0
20260507101736 53 122 0.0 0.0 0.00 0.00 0.00 86 1013.0
20260507101236 53 210 0.0 0.0 0.00 0.00 0.00 86 1013.0
20260507100735 53 179 0.0 1.0 0.00 0.00 0.00 87 1013.0
20260507100235 53 179 1.0 1.0 0.00 0.00 0.00 86 1013.0
20260507095522 52 53 0.0 1.0 0.00 0.00 0.00 88 1013.0
20260507095022 53 130 0.0 0.0 0.00 0.00 0.00 89 1013.0
20260507094312 53 133 0.0 1.0 0.00 0.00 0.00 88 1013.0
20260507093810 52 149 0.0 1.0 0.00 0.00 0.00 87 1012.0
20260507093310 52 66 1.0 1.0 0.00 0.00 0.00 87 1012.0
20260507092810 53 75 1.0 1.0 0.00 0.00 0.00 89 1013.0
20260507092311 53 179 0.0 1.0 0.00 0.00 0.00 89 1013.0
20260507091810 52 90 0.0 1.0 0.00 0.00 0.00 89 1013.0
20260507091312 53 90 1.0 1.0 0.00 0.00 0.00 88 1013.0
20260507090810 53 179 0.0 1.0 0.00 0.00 0.00 88 1013.0
20260507090310 53 159 0.0 1.0 0.00 0.00 0.00 87 1013.0
20260507085810 53 90 0.0 1.0 0.00 0.00 0.00 88 1013.0
20260507085310 53 131 0.0 1.0 0.00 0.00 0.00 87 1012.0
20260507084811 52 145 1.0 0.0 0.00 0.00 0.00 86 1012.0
20260507084310 52 131 0.0 1.0 0.00 0.00 0.00 88 1012.0
20260507083810 52 179 0.0 1.0 0.00 0.00 0.00 87 1012.0
20260507083310 52 156 0.0 1.0 0.00 0.00 0.00 87 1012.0
20260507082810 52 188 0.0 1.0 0.00 0.00 0.00 87 1012.0
20260507082310 51 179 0.0 2.0 0.00 0.00 0.00 87 1012.0
20260507081810 51 55 1.0 1.0 0.00 0.00 0.00 86 1012.0
20260507081100 51 90 0.0 2.0 0.00 0.00 0.00 88 1012.0
20260507080559 51 52 2.0 4.0 0.00 0.00 0.00 85 1012.0
20260507080059 51 51 2.0 6.0 0.00 0.00 0.00 84 1012.0
20260507075559 51 46 0.0 6.0 0.00 0.00 0.00 85 1012.0
20260507074634 51 29 2.0 6.0 0.00 0.00 0.00 86 1012.0
20260507073923 51 66 2.0 5.0 0.00 0.00 0.00 86 1012.0
20260507073423 51 26 3.0 7.0 0.00 0.00 0.00 84 1011.0
20260507072924 52 28 2.0 6.0 0.00 0.00 0.00 87 1012.0
20260507072422 52 31 4.0 7.0 0.00 0.00 0.00 85 1012.0
20260507071711 53 72 1.0 2.0 0.00 0.00 0.00 90 1012.0
20260507071213 53 16 1.0 3.0 0.00 0.00 0.00 89 1012.0
20260507070711 53 45 0.0 3.0 0.00 0.00 0.00 88 1011.0
20260507070211 53 25 1.0 2.0 0.00 0.00 0.00 88 1012.0
20260507065459 53 17 0.0 2.0 0.00 0.00 0.00 88 1012.0
20260507064747 53 24 1.0 3.0 0.00 0.00 0.00 88 1012.0
20260507064248 53 335 1.0 2.0 0.00 0.00 0.00 87 1012.0
20260507063747 54 254 0.0 1.0 0.00 0.00 0.00 90 1012.0
20260507063248 53 25 1.0 2.0 0.00 0.00 0.00 89 1012.0
20260507062747 53 17 1.0 5.0 0.00 0.00 0.00 88 1012.0
20260507062034 53 311 3.0 6.0 0.00 0.00 0.00 88 1011.0
20260507061536 54 25 3.0 3.0 0.00 0.00 0.00 90 1011.0
20260507061034 54 23 1.0 3.0 0.00 0.00 0.00 90 1012.0
20260507060536 54 0 0.0 1.0 0.00 0.00 0.00 90 1012.0
20260507060034 54 327 1.0 3.0 0.00 0.00 0.00 91 1012.0
20260507055323 53 16 2.0 3.0 0.00 0.00 0.00 91 1011.0
20260507054822 54 326 1.0 2.0 0.00 0.00 0.00 92 1012.0
20260507054322 53 304 1.0 4.0 0.00 0.00 0.00 91 1012.0
20260507053823 53 37 1.0 3.0 0.00 0.00 0.00 92 1012.0
20260507053324 53 26 0.0 3.0 0.00 0.00 0.00 92 1012.0
20260507052824 53 327 0.0 4.0 0.00 0.00 0.00 91 1012.0
20260507052322 54 38 1.0 4.0 0.00 0.00 0.00 90 1012.0
20260507051358 54 140 0.0 3.0 0.00 0.00 0.00 91 1012.0
20260507050858 54 56 3.0 4.0 0.00 0.00 0.00 88 1012.0
20260507050358 54 278 1.0 6.0 0.00 0.00 0.00 89 1012.0
20260507045859 55 17 3.0 4.0 0.00 0.00 0.00 84 1012.0
20260507045358 56 336 2.0 4.0 0.00 0.00 0.00 80 1012.0
20260507044858 58 44 1.0 2.0 0.00 0.00 0.00 79 1012.0
20260507044358 58 56 0.0 4.0 0.00 0.00 0.00 72 1012.0
20260507043858 59 63 0.0 6.0 0.00 0.00 0.00 72 1012.0
20260507043359 59 14 1.0 8.0 0.00 0.00 0.00 71 1012.0
20260507042858 60 44 2.0 4.0 0.00 0.00 0.00 72 1012.0
20260507042147 60 36 3.0 3.0 0.00 0.00 0.00 72 1012.0
20260507041645 61 64 1.0 3.0 0.00 0.00 0.00 71 1012.0
20260507041145 61 203 0.0 3.0 0.00 0.00 0.00 70 1012.0
20260507040647 61 312 0.0 4.0 0.00 0.00 0.00 70 1011.0
20260507040145 62 39 2.0 2.0 0.00 0.00 0.00 69 1011.0
20260507035645 62 234 1.0 2.0 0.00 0.00 0.00 68 1011.0
20260507035145 62 52 1.0 3.0 0.00 0.00 0.00 68 1011.0
20260507034646 62 296 2.0 3.0 0.00 0.00 0.00 68 1011.0
20260507034145 62 327 1.0 2.0 0.00 0.00 0.00 67 1011.0
20260507033646 62 136 0.0 3.0 0.00 0.00 0.00 68 1011.0
20260507033145 62 33 2.0 3.0 0.00 0.00 0.00 68 1011.0
20260507032645 62 307 0.0 3.0 0.00 0.00 0.00 70 1011.0
20260507032145 62 279 1.0 3.0 0.00 0.00 0.00 68 1011.0
20260507031646 62 330 2.0 4.0 0.00 0.00 0.00 68 1011.0
20260507031145 62 323 2.0 3.0 0.00 0.00 0.00 69 1011.0
20260507030646 63 27 2.0 5.0 0.00 0.00 0.00 68 1011.0
20260507030146 63 33 5.0 7.0 0.00 0.00 0.00 68 1011.0
20260507025645 63 51 0.0 1.0 0.00 0.00 0.00 68 1011.0
20260507025145 63 46 1.0 4.0 0.00 0.00 0.00 70 1011.0
20260507024434 63 38 2.0 7.0 0.00 0.00 0.00 71 1011.0
20260507023934 63 320 1.0 8.0 0.00 0.00 0.00 73 1011.0
20260507023434 63 320 2.0 4.0 0.00 0.00 0.00 74 1011.0
20260507022934 64 23 1.0 5.0 0.00 0.00 0.00 74 1011.0
20260507022434 64 40 3.0 8.0 0.00 0.00 0.00 75 1011.0
20260507021934 65 32 1.0 4.0 0.00 0.00 0.00 76 1010.0
20260507021223 65 33 1.0 4.0 0.00 0.00 0.00 75 1010.0
20260507020258 65 10 2.0 3.0 0.00 0.00 0.00 74 1011.0
20260507015759 66 305 0.0 1.0 0.00 0.00 0.00 73 1011.0
20260507015046 66 318 0.0 2.0 0.00 0.00 0.00 73 1011.0
20260507014546 66 320 0.0 2.0 0.00 0.00 0.00 73 1010.0
20260507014046 66 44 1.0 3.0 0.00 0.00 0.00 73 1010.0
20260507013546 66 317 0.0 3.0 0.00 0.00 0.00 74 1011.0
20260507012836 66 49 1.0 4.0 0.00 0.00 0.00 73 1011.0
20260507012335 66 65 1.0 3.0 0.00 0.00 0.00 74 1010.0
20260507011835 66 185 0.0 1.0 0.00 0.00 0.00 78 1011.0
20260507011335 66 0 0.0 1.0 0.00 0.00 0.00 77 1011.0
20260507010835 67 0 0.0 0.0 0.00 0.00 0.00 77 1011.0
20260507010335 67 0 0.0 1.0 0.00 0.00 0.00 77 1011.0
20260507005836 67 38 1.0 1.0 0.00 0.00 0.00 78 1010.0
20260507005336 67 132 0.0 1.0 0.00 0.00 0.00 79 1010.0
20260507004835 67 90 0.0 1.0 0.00 0.00 0.00 77 1011.0
20260507004335 67 213 0.0 0.0 0.00 0.00 0.00 77 1010.0
20260507003409 66 42 0.0 1.0 0.00 0.00 0.00 76 1010.0
20260507002658 66 0 0.0 1.0 0.00 0.00 0.00 76 1010.0
20260507002158 67 51 0.0 1.0 0.00 0.00 0.00 76 1010.0
20260507001657 67 65 1.0 1.0 0.00 0.00 0.00 76 1010.0
20260507000524 68 134 1.0 2.0 0.00 0.00 0.00 76 1010.0
20260507000024 68 127 1.0 3.0 0.00 0.00 0.00 76 1010.0
20260506235525 68 112 2.0 3.0 0.00 0.00 0.00 74 1010.0
20260506235024 68 90 0.0 2.0 0.00 0.00 0.00 75 1010.0
20260506234524 68 70 0.0 2.0 0.00 0.00 0.00 75 1010.0
20260506234025 68 125 0.0 2.0 0.00 0.00 0.00 75 1009.0
20260506233524 68 126 1.0 2.0 0.00 0.00 0.00 75 1010.0
20260506233024 68 179 0.0 2.0 0.00 0.00 0.00 75 1010.0
20260506232313 68 0 0.0 1.0 0.00 0.00 0.00 73 1010.0
20260506231813 68 59 1.0 2.0 0.00 0.00 0.00 73 1009.0
20260506231312 68 32 0.0 1.0 0.00 0.00 0.00 74 1009.0
20260506230813 69 54 1.0 3.0 0.00 0.00 0.00 71 1010.0
20260506230311 69 47 0.0 3.0 0.00 0.00 0.00 73 1010.0
20260506225600 69 52 1.0 4.0 0.00 0.00 0.00 72 1010.0
20260506225059 69 53 0.0 1.0 0.00 0.00 0.00 71 1010.0
20260506224558 69 90 0.0 1.0 0.00 0.00 0.00 71 1009.0
20260506224059 69 90 0.0 3.0 0.00 0.00 0.00 72 1009.0
20260506223558 69 90 1.0 2.0 0.00 0.00 0.00 71 1009.0
20260506223059 69 61 0.0 1.0 0.00 0.00 0.00 72 1009.0
20260506222600 69 90 0.0 3.0 0.00 0.00 0.00 70 1009.0
20260506222058 69 32 0.0 2.0 0.00 0.00 0.00 72 1009.0
20260506221347 69 55 1.0 4.0 0.00 0.00 0.00 70 1010.0
20260506220634 70 108 3.0 4.0 0.00 0.00 0.00 69 1009.0
20260506215924 70 150 0.0 2.0 0.00 0.00 0.00 69 1009.0
20260506215424 70 30 0.0 3.0 0.00 0.00 0.00 70 1009.0
20260506214711 70 304 0.0 3.0 0.00 0.00 0.00 68 1009.0
20260506214213 70 179 0.0 4.0 0.00 0.00 0.00 70 1009.0
20260506213712 70 76 2.0 2.0 0.00 0.00 0.00 71 1009.0
20260506213212 70 90 1.0 2.0 0.00 0.00 0.00 69 1009.0
20260506212711 70 277 1.0 3.0 0.00 0.00 0.00 68 1009.0
20260506212211 70 132 0.0 3.0 0.00 0.00 0.00 69 1009.0
20260506211713 70 119 2.0 3.0 0.00 0.00 0.00 68 1009.0
20260506211211 70 42 1.0 3.0 0.00 0.00 0.00 68 1009.0
20260506210713 69 63 0.0 4.0 0.00 0.00 0.00 68 1009.0
20260506210211 69 48 2.0 3.0 0.00 0.00 0.00 68 1009.0
20260506205711 69 90 0.0 2.0 0.00 0.00 0.00 70 1009.0
20260506205212 69 58 1.0 7.0 0.00 0.00 0.00 69 1009.0
20260506204713 69 221 2.0 3.0 0.00 0.00 0.00 69 1009.0
20260506204211 69 52 2.0 4.0 0.00 0.00 0.00 71 1009.0
20260506203459 69 77 2.0 3.0 0.00 0.00 0.00 69 1009.0
20260506203001 69 140 0.0 4.0 0.00 0.00 0.00 69 1009.0
20260506202459 69 74 4.0 6.0 0.00 0.00 0.00 68 1009.0
20260506201959 70 211 1.0 4.0 0.00 0.00 0.00 68 1009.0
20260506201459 69 60 1.0 6.0 0.00 0.00 0.00 68 1009.0
20260506201000 70 179 0.0 6.0 0.00 0.00 0.00 68 1009.0
20260506200459 70 111 3.0 4.0 0.00 0.00 0.00 68 1009.0
20260506195747 71 151 1.0 9.0 0.00 0.00 0.00 70 1009.0
20260506195247 71 21 1.0 4.0 0.00 0.00 0.00 68 1009.0
20260506194747 71 145 2.0 3.0 0.00 0.00 0.00 68 1009.0
20260506194247 70 118 2.0 8.0 0.00 0.00 0.00 66 1009.0
20260506193748 71 42 2.0 7.0 0.00 0.00 0.00 67 1009.0
20260506193248 71 90 0.0 5.0 0.00 0.00 0.00 65 1009.0
20260506192748 71 50 3.0 6.0 0.00 0.00 0.00 66 1009.0
20260506192247 71 320 1.0 5.0 0.00 0.00 0.00 66 1009.0
20260506191747 71 24 1.0 5.0 0.00 0.00 0.00 70 1009.0
20260506191248 71 139 4.0 5.0 0.00 0.00 0.00 69 1009.0
20260506190747 69 81 3.0 3.0 0.00 0.00 0.00 70 1009.0
20260506190248 69 68 1.0 5.0 0.00 0.00 0.00 72 1009.0
20260506185748 68 75 1.0 7.0 0.00 0.00 0.00 73 1009.0
20260506185035 67 90 1.0 4.0 0.00 0.00 0.00 76 1009.0
20260506184535 66 85 3.0 7.0 0.00 0.00 0.00 75 1009.0
20260506184036 66 83 2.0 5.0 0.00 0.00 0.00 75 1010.0
20260506183535 66 136 2.0 5.0 0.00 0.00 0.00 75 1010.0
20260506182823 65 53 0.0 5.0 0.00 0.00 0.00 79 1010.0
20260506181648 65 152 0.0 8.0 0.00 0.00 0.00 78 1010.0
20260506181150 65 274 2.0 4.0 0.00 0.00 0.00 79 1010.0
20260506180648 64 90 2.0 5.0 0.00 0.00 0.00 79 1010.0
20260506180148 64 61 3.0 9.0 0.00 0.00 0.00 80 1010.0
20260506175650 64 189 2.0 5.0 0.00 0.00 0.00 79 1010.0
20260506175149 63 31 1.0 5.0 0.00 0.00 0.00 84 1010.0
20260506174648 63 134 1.0 6.0 0.00 0.00 0.00 84 1010.0
20260506174148 63 90 0.0 6.0 0.00 0.00 0.00 82 1010.0
20260506173648 63 137 1.0 11.0 0.00 0.00 0.00 85 1010.0
20260506173148 63 117 1.0 7.0 0.00 0.00 0.00 83 1010.0
20260506172648 63 46 1.0 5.0 0.00 0.00 0.00 84 1010.0
20260506172148 62 296 0.0 6.0 0.00 0.00 0.00 85 1010.0
20260506171650 62 90 0.0 7.0 0.00 0.00 0.00 85 1010.0
20260506171148 62 122 0.0 7.0 0.00 0.00 0.00 86 1010.0
20260506170649 62 90 1.0 6.0 0.00 0.00 0.00 85 1010.0
20260506170150 62 82 4.0 15.0 0.00 0.00 0.00 86 1010.0
20260506165649 62 311 0.0 7.0 0.00 0.00 0.00 89 1010.0
20260506165149 61 232 1.0 8.0 0.00 0.00 0.00 87 1010.0
20260506164649 61 30 1.0 6.0 0.00 0.00 0.00 88 1010.0
20260506164149 61 118 1.0 10.0 0.00 0.00 0.00 89 1010.0
20260506163648 61 137 0.0 9.0 0.00 0.00 0.00 90 1010.0
20260506163148 60 123 3.0 6.0 0.00 0.00 0.00 89 1010.0
20260506162649 60 35 3.0 6.0 0.00 0.00 0.00 90 1010.0
20260506162149 60 166 1.0 11.0 0.00 0.00 0.00 88 1010.0
20260506161648 60 197 3.0 10.0 0.00 0.00 0.00 90 1010.0
20260506161148 60 152 3.0 5.0 0.00 0.00 0.00 90 1010.0
20260506160648 60 227 1.0 9.0 0.00 0.00 0.00 91 1010.0
20260506160149 59 161 1.0 7.0 0.00 0.00 0.00 91 1010.0
20260506155648 59 90 0.0 8.0 0.00 0.00 0.00 92 1010.0
20260506154937 59 73 1.0 10.0 0.00 0.00 0.00 92 1010.0
20260506154437 59 90 0.0 13.0 0.00 0.00 0.00 92 1011.0
20260506153515 59 65 2.0 6.0 0.00 0.00 0.00 93 1010.0
20260506153014 59 123 2.0 6.0 0.00 0.00 0.00 93 1010.0
20260506152515 59 102 3.0 18.0 0.00 0.00 0.00 93 1010.0
20260506151803 59 93 10.0 15.0 0.00 0.00 0.00 92 1011.0
20260506151050 59 166 2.0 5.0 0.00 0.00 0.00 93 1011.0
20260506150552 58 134 2.0 8.0 0.00 0.00 0.00 93 1011.0
20260506150051 58 117 4.0 8.0 0.00 0.00 0.00 92 1011.0
20260506145551 58 113 3.0 7.0 0.00 0.00 0.00 92 1011.0
20260506145052 58 152 1.0 6.0 0.00 0.00 0.00 93 1011.0
20260506144550 58 154 2.0 13.0 0.00 0.00 0.00 93 1011.0
20260506143627 58 154 2.0 7.0 0.00 0.00 0.00 92 1011.0
20260506143126 58 321 2.0 7.0 0.00 0.00 0.00 92 1011.0
20260506142626 58 92 4.0 6.0 0.00 0.00 0.00 92 1011.0
20260506142126 58 112 2.0 5.0 0.00 0.00 0.00 92 1011.0
20260506141414 59 168 1.0 6.0 0.00 0.00 0.00 92 1011.0
20260506140913 59 83 3.0 5.0 0.00 0.00 0.00 92 1011.0
20260506140413 59 113 2.0 3.0 0.00 0.00 0.00 91 1011.0
20260506135913 59 134 0.0 7.0 0.00 0.00 0.00 90 1011.0
20260506135413 59 77 3.0 7.0 0.00 0.00 0.00 90 1011.0
20260506134914 59 70 3.0 4.0 0.00 0.00 0.00 91 1011.0
20260506134413 60 109 1.0 8.0 0.00 0.00 0.00 89 1011.0
20260506133912 60 40 0.0 3.0 0.00 0.00 0.00 89 1012.0
20260506133201 60 36 1.0 4.0 0.00 0.00 0.00 88 1012.0
20260506132701 60 122 1.0 6.0 0.00 0.00 0.00 86 1012.0
20260506132203 61 179 0.0 6.0 0.00 0.00 0.00 86 1012.0
20260506131701 61 149 0.0 7.0 0.00 0.00 0.00 85 1011.0
20260506131201 61 227 2.0 3.0 0.00 0.00 0.00 85 1011.0
20260506130701 62 90 1.0 2.0 0.00 0.00 0.00 86 1011.0
20260506125950 61 113 0.0 2.0 0.00 0.00 0.00 85 1011.0
20260506125450 61 140 1.0 5.0 0.00 0.00 0.00 83 1011.0
20260506124951 61 143 1.0 4.0 0.00 0.00 0.00 84 1011.0
20260506124450 62 118 0.0 9.0 0.00 0.00 0.00 82 1011.0
20260506123740 62 111 1.0 6.0 0.00 0.00 0.00 80 1011.0
20260506123239 62 143 1.0 3.0 0.00 0.00 0.00 79 1011.0
20260506122526 63 134 1.0 3.0 0.00 0.00 0.00 77 1011.0
20260506122026 63 71 1.0 5.0 0.00 0.00 0.00 77 1011.0
20260506121314 63 178 1.0 4.0 0.00 0.00 0.00 75 1012.0
20260506120813 63 179 1.0 6.0 0.00 0.00 0.00 75 1011.0
20260506120312 63 50 0.0 5.0 0.00 0.00 0.00 73 1011.0
20260506115814 63 134 2.0 9.0 0.00 0.00 0.00 74 1011.0
20260506114849 64 163 2.0 2.0 0.00 0.00 0.00 69 1011.0
20260506113926 64 111 4.0 8.0 0.00 0.00 0.00 68 1011.0
20260506113213 64 66 1.0 7.0 0.00 0.00 0.00 67 1011.0
20260506112713 64 122 2.0 6.0 0.00 0.00 0.00 67 1011.0
20260506112002 64 40 2.0 4.0 0.00 0.00 0.00 67 1011.0
20260506111502 64 63 3.0 8.0 0.00 0.00 0.00 67 1011.0
20260506111002 64 90 1.0 13.0 0.00 0.00 0.00 67 1011.0
20260506110503 64 117 0.0 4.0 0.00 0.00 0.00 67 1011.0
20260506105750 64 102 1.0 5.0 0.00 0.00 0.00 68 1011.0